Home   Weather   Bischofshofen   Past weeks

Flag for Austria Past Weather in Bischofshofen, Salzburg, Austria — Yesterday and Last 2 Weeks

Now
25 °F

Passing clouds.


Feels Like: 25 °F
Forecast: 25 / 43 °F
Wind: 2 mph from Southeast

Location: Salzburg-Flughafen

Current Time: Dec 5, 2016 at 3:34:40 am

Latest Report: Dec 5, 2016 at 2:50 am


Visibility: N/A

Pressure: 30.36 "Hg (28.33 "Hg at 545m altitude)

Humidity: 93%

Dew Point: 23 °F

Location of BischofshofenLocation

Past Weather in Bischofshofen — Graph

°F

Bischofshofen Temperature Yesterday

Maximum temperature yesterday: 34 °F (at 11:20 am)
Minimum temperature yesterday: 28 °F (at 5:20 am)
Average temperature yesterday: 30 °F

High & Low Weather Summary for the Past Weeks

 TemperatureHumidityPressure
High70 °F (Nov 21, 12:50 pm)100% (Nov 24, 12:20 am)30.51 "Hg (Nov 24, 12:20 am)
Low18 °F (Nov 29, 7:20 am)31% (Nov 21, 12:50 pm)29.68 "Hg (Nov 21, 1:50 pm)
Average40 °F77%30.12 "Hg
* Reported Nov 20 2:20 am — Dec 5 2:20 am, Bischofshofen, Weather by CustomWeather, © 2016

Note: Actual official high and low records may vary slightly from our data, if they occured in-between our weather recording intervals... More about our weather records

Advertising

Bischofshofen Weather History for the Previous 24 Hours

Scroll right to see more
 ConditionsComfort  
Time TempWeatherWind HumidityBarometerVisibility
2:20 am
Mon, Dec 5
25 °FPassing clouds.1 mph93%30.33 "Hg6 mi
1:50 am25 °FPassing clouds.2 mph93%30.33 "HgN/A
1:20 am27 °FPassing clouds.2 mph93%30.33 "HgN/A
12:50 am27 °FPassing clouds.1 mph93%30.33 "HgN/A
12:20 am28 °FPassing clouds.2 mph93%30.33 "HgN/A
11:50 pm
Sun, Dec 4
28 °FPassing clouds.5 mph93%30.33 "HgN/A
11:20 pm30 °FPassing clouds.3 mph86%30.33 "HgN/A
10:50 pm30 °FLow clouds.3 mph86%30.33 "HgN/A
10:20 pm30 °FPassing clouds.5 mph86%30.33 "HgN/A
9:50 pm30 °FPartly cloudy.3 mph86%30.33 "HgN/A
9:20 pm30 °FPartly cloudy.5 mph86%30.33 "HgN/A
8:50 pm30 °FPassing clouds.3 mph86%30.33 "HgN/A
8:20 pm30 °FOvercast.2 mph86%30.33 "HgN/A
7:50 pm30 °FPassing clouds.2 mph93%30.33 "HgN/A
7:20 pm32 °FPassing clouds.1 mph80%30.33 "HgN/A
6:50 pm30 °FPassing clouds.2 mph86%30.33 "HgN/A
6:20 pm30 °FPartly cloudy.3 mph86%30.33 "HgN/A
5:50 pm30 °FPartly cloudy.2 mph86%30.33 "HgN/A
5:20 pm30 °FPassing clouds.2 mph86%30.33 "HgN/A
4:50 pm30 °FPassing clouds.2 mph86%30.33 "HgN/A
4:20 pm30 °FPartly cloudy.2 mph86%30.33 "HgN/A
3:50 pm30 °FPartly sunny.3 mph86%30.33 "HgN/A
3:20 pm30 °FBroken clouds.2 mph86%30.33 "HgN/A
2:50 pm32 °FPartly sunny.2 mph80%30.33 "HgN/A
2:20 pm32 °FPartly sunny.2 mph80%30.30 "HgN/A
1:50 pm32 °FPartly sunny.5 mph80%30.33 "HgN/A
1:20 pm32 °FPartly sunny.5 mph80%30.30 "HgN/A
12:50 pm32 °FPartly sunny.3 mph80%30.30 "HgN/A
12:20 pm32 °FPartly sunny.6 mph80%30.30 "HgN/A
11:50 am32 °FPartly sunny.7 mph80%30.30 "HgN/A
11:20 am34 °FScattered clouds.3 mph75%30.33 "HgN/A
10:50 am32 °FPartly sunny.1 mph80%30.33 "HgN/A
10:20 am32 °FPartly sunny.2 mph80%30.33 "HgN/A
9:50 am30 °FPartly sunny.3 mph93%30.33 "HgN/A
9:20 am30 °FPartly sunny.5 mph86%30.30 "HgN/A
8:50 am30 °FPartly sunny.5 mph86%30.30 "HgN/A
8:20 am28 °FPartly sunny.3 mph93%30.30 "HgN/A
7:50 am28 °FPartly sunny.1 mph93%30.30 "HgN/A
7:20 am28 °FPassing clouds.1 mph93%30.27 "HgN/A
6:50 am28 °FPassing clouds.5 mph93%30.27 "HgN/A
6:20 am28 °FPassing clouds.5 mph93%30.27 "HgN/A
5:50 am28 °FPassing clouds.6 mph93%30.27 "HgN/A
5:20 am28 °FPartly cloudy.2 mph93%30.27 "Hg6 mi
4:50 am30 °FPassing clouds.3 mph93%30.24 "Hg6 mi
4:20 am30 °FPassing clouds.2 mph93%30.24 "HgN/A
3:50 am30 °FPassing clouds.1 mph93%30.24 "HgN/A
3:20 am30 °FPassing clouds.3 mph93%30.24 "HgN/A
Weather by CustomWeather, © 2016

See weather overviewHow to use our weather pages